Location: Unspecified
(35.7250°N, 0.0000°E)
Time: 13:03:19
(UTC+00:00)

Explorer 7 - Pass Details

Date: 22 June 2019
Orbit: 485 x 680 km, 50.3° (Epoch: 16 August)

Event Time Altitude Azimuth Distance (km) Brightness Sun altitude
Rises 13:42:27 0° 315° (NW) 2,958 10.7 65.0°
Reaches altitude 10° 13:45:03 10° 327° (NNW) 2,071 10.0 64.6°
Maximum altitude 13:49:12 28° 27° (NNE) 1,240 8.8 63.8°
Drops below altitude 10° 13:53:27 10° 87° (E) 2,112 9.6 63.0°
Sets 13:56:06 0° 98° (E) 3,027 10.3 62.5°
